Home > Weather > Zabrze > Past weeks

Flag for Poland Past Weather in Zabrze, Poland — Yesterday and Last 2 Weeks

Now
75 °F

Scattered clouds.


Feels Like: 77 °F
Forecast: 59 / 87 °F
Wind: 2 mph from North

Location: Katowice Airport

Current Time: Jul 1, 2016 at 11:52:41 AM

Latest Report: Jul 1, 2016 at 11:30 AM


Visibility: N/A

Pressure: 30.07 "Hg

Humidity: 61%

Dew Point: 61 °F

Location of ZabrzeLocation

Past Weather in Zabrze — Graph

°F

Zabrze Temperature Yesterday

Maximum temperature yesterday: 86 °F (at 3:00 PM)
Minimum temperature yesterday: 55 °F (at 4:30 AM)
Average temperature yesterday: 70 °F

High & Low Weather Summary for the Past Weeks

 TemperatureHumidityPressure
High93 °F (Jun 25, 4:30 PM)100% (Jun 20, 2:00 AM)30.30 "Hg (Jun 20, 2:00 AM)
Low46 °F (Jun 19, 4:30 AM)30% (Jun 25, 2:30 PM)29.47 "Hg (Jun 17, 9:00 AM)
Average68 °F71%30.03 "Hg
* Reported Jun 16 10:00 AM — Jul 1 10:30 AM, Zabrze, Weather by CustomWeather, © 2016

Note: Actual official high and low records may vary slightly from our data, if they occured in-between our weather recording intervals... More about our weather records

Advertising

Zabrze Weather History for the Previous 24 Hours

Scroll right to see more
 ConditionsComfort  
Time TempWeatherWind HumidityBarometerVisibility
10:30 AM
Fri, Jul 1
73 °FScattered clouds.3 mph69%30.07 "HgN/A
10:00 AM73 °FPassing clouds.5 mph69%30.07 "HgN/A
9:30 AM73 °FPassing clouds.2 mph65%30.07 "HgN/A
9:00 AM72 °FPassing clouds.2 mph73%30.07 "HgN/A
8:30 AM70 °FPassing clouds.3 mph83%30.07 "HgN/A
8:00 AM68 °FPassing clouds.5 mph83%30.07 "HgN/A
7:30 AM66 °FPassing clouds.5 mph88%30.04 "HgN/A
7:00 AM64 °FClear.1 mph94%30.04 "Hg6 mi
6:30 AM63 °FFog.1 mph94%30.04 "Hg3 mi
6:00 AM63 °FFog.2 mph94%30.04 "Hg6 mi
5:30 AM63 °FFog.2 mph94%30.04 "Hg2 mi
5:00 AM61 °FFog.2 mph100%30.01 "Hg6 mi
4:30 AM61 °FFog.2 mph100%30.04 "Hg5 mi
4:00 AM63 °FFog.5 mph94%30.01 "Hg3 mi
3:30 AM63 °FSprinkles. Passing clouds.1 mph94%30.01 "HgN/A
3:00 AM63 °FClear.6 mph94%30.04 "Hg10 mi
2:30 AM61 °FClear.2 mph100%30.04 "Hg10 mi
2:00 AM63 °FPassing clouds.6 mph94%30.04 "HgN/A
1:30 AM61 °FLight rain. Passing clouds.2 mph100%30.01 "HgN/A
1:00 AM61 °FClear.2 mph94%30.01 "Hg5 mi
12:30 AM61 °FClear.5 mph100%30.01 "Hg10 mi
12:00 AM63 °FPassing clouds.3 mph94%30.01 "HgN/A
11:30 PM
Thu, Jun 30
63 °FPassing clouds.3 mph94%30.01 "HgN/A
11:00 PM61 °FClear.1 mph100%30.01 "Hg10 mi
10:30 PM63 °FClear.5 mph94%30.01 "Hg10 mi
10:00 PM63 °FClear.2 mph100%30.01 "Hg10 mi
9:30 PM63 °FSunny.3 mph100%30.01 "Hg10 mi
9:00 PM64 °FSunny.3 mph94%30.01 "Hg10 mi
8:30 PM64 °FSunny.7 mph94%29.98 "Hg10 mi
8:00 PM64 °FPassing clouds.8 mph94%29.98 "HgN/A
7:30 PM66 °FThundershowers. Passing clouds.7 mph88%30.01 "HgN/A
7:00 PM66 °FThunderstorms. Scattered clouds.12 mph88%29.98 "HgN/A
6:30 PM70 °FThundershowers. Partly sunny.18 mph83%29.98 "HgN/A
6:00 PM72 °FThunderstorms. Broken clouds.13 mph69%29.95 "Hg1 mi
5:30 PM79 °FStrong thunderstorms. Broken clouds.10 mph58%29.95 "Hg1 mi
5:00 PM84 °FThunderstorms. Partly sunny.9 mph40%29.92 "HgN/A
4:30 PM84 °FPassing clouds.6 mph37%29.92 "HgN/A
4:00 PM86 °FScattered clouds.8 mph35%29.95 "HgN/A
3:30 PM84 °FSunny.10 mph40%29.95 "Hg10 mi
3:00 PM86 °FPassing clouds.12 mph35%29.95 "HgN/A
2:30 PM84 °FPassing clouds.8 mph35%29.95 "HgN/A
2:00 PM84 °FPassing clouds.6 mph37%29.98 "HgN/A
1:30 PM82 °FPassing clouds.6 mph42%29.98 "HgN/A
1:00 PM82 °FSunny.3 mph42%29.98 "Hg10 mi
12:30 PM82 °FPassing clouds.7 mph40%29.98 "HgN/A
12:00 PM81 °FPassing clouds.7 mph39%29.98 "HgN/A
11:30 AM81 °FPassing clouds.7 mph42%29.98 "HgN/A
11:00 AM81 °FSunny.7 mph42%30.01 "Hg10 mi
Weather by CustomWeather, © 2016

See weather overviewHow to use our weather pages